Content
SEND FEEDBACK

Daily
Averages
Monthly
Summary
United States of America

EAST CARONDELET, ILLINOIS


Home > North America > United States > Illinois
Elevation: 400 feet     Latitude: 38 34N     Longitude: 090 13W

WEATHER
 
SELECT A DAY
Number of Records: 185,881;   Date Range: 1/1/95 - 7/7/14
 
SHARE

PRINT THIS DATA

[ ← Previous Day ]
WEATHER ALMANAC - JANUARY 1, 2013
[ Next Day → ]
[ °C ]   °F
Weather ElementAverageHighLow
Temperature25 °F30.9 °F (12:53 am)19 °F (11:53 pm)
Dewpoint18 °F28.9 °F (12:53 am)10.9 °F (8:53 pm)
Humidity75.1 %92 % (12:53 am)58 % (9:53 pm)
Barometer30.21 in30.30 in (10:53 pm)30.12 in (12:53 am)
Wind Speed8.8 mph15 mph (12:53 am)
Weather ElementAverage
Visibility9.1 mi
Wind DirectionWNW (302.6 °)

Weather ElementTotal
Precipitation---
Heating Degree Days40.1 (Base 65)
Averaged from 27 records on January 1, 2013
WEATHER CONDITIONS BREAKOUT
WIND DIRECTION BREAKOUT
WEATHER BY HOUR - JANUARY 1, 2013
[ °C ]   °F
Local TimeTemperatureDewpointHumidityBarometerVisibilityWind DirectionWind SpeedGust SpeedPrecipitationEventsConditions
12:53 AM30.9 °F28.9 °F92 %30.12 in3.0 miNorth (360°)15.0 mph0.00 inSnowLight Snow
1:30 AM28.4 °F24.8 °F86 %30.12 in9.0 miNorth (360°)11.5 mph0.00 inOvercast
2:53 AM27.0 °F21.9 °F81 %30.16 in10.0 miNorth (350°)9.2 mph0.00 inOvercast
3:07 AM26.6 °F21.2 °F80 %30.15 in10.0 miNorth (350°)10.4 mphOvercast
3:26 AM26.6 °F21.2 °F80 %30.16 in10.0 miNorth (350°)11.5 mphOvercast
3:33 AM26.6 °F21.2 °F80 %30.16 in10.0 miNorth (350°)10.4 mphOvercast
3:53 AM26.1 °F21.0 °F81 %30.17 in10.0 miNorth (360°)8.1 mphOvercast
4:17 AM26.6 °F21.2 °F80 %30.16 in9.0 miNorth (360°)9.2 mphOvercast
4:46 AM26.6 °F21.2 °F80 %30.16 in9.0 miNorth (350°)9.2 mphOvercast
4:53 AM26.1 °F21.0 °F81 %30.17 in9.0 miNorth (350°)9.2 mphOvercast
5:11 AM24.8 °F19.4 °F80 %30.16 in9.0 miNNW (340°)10.4 mphOvercast
5:53 AM24.1 °F19.9 °F84 %30.16 in9.0 miNorth (10°)9.2 mphOvercast
6:53 AM24.1 °F18.0 °F77 %30.19 in8.0 miNorth (10°)9.2 mphOvercast
7:23 AM24.8 °F17.6 °F74 %30.20 in8.0 miNorth (10°)9.2 mphOvercast
8:53 AM23.0 °F17.1 °F78 %30.26 in7.0 miNorth (350°)10.4 mphOvercast
9:53 AM23.0 °F17.1 °F78 %30.23 in8.0 miNorth (350°)15.0 mphMostly Cloudy
10:53 AM23.0 °F17.1 °F78 %30.25 in9.0 miNNW (340°)11.5 mphClear
12:53 PM25.0 °F17.1 °F72 %30.23 in9.0 miNorth (360°)9.2 mphOvercast
1:53 PM25.0 °F17.1 °F72 %30.22 in9.0 miNorth (360°)5.8 mphOvercast
2:53 PM25.0 °F16.0 °F69 %30.23 in10.0 miNorth (360°)6.9 mph
3:53 PM25.0 °F15.1 °F66 %30.25 in10.0 miNorth (360°)8.1 mphOvercast
5:53 PM23.0 °F12.9 °F65 %30.27 in10.0 miNorth (350°)4.6 mphPartly Cloudy
6:53 PM23.0 °F12.0 °F63 %30.27 in10.0 miNorth (360°)5.8 mphClear
8:53 PM21.0 °F10.9 °F65 %30.27 in10.0 miNorth (360°)5.8 mphClear
9:53 PM25.0 °F12.0 °F58 %30.28 in10.0 miNorth (350°)3.5 mphClear
10:53 PM25.0 °F12.0 °F58 %30.30 in10.0 miNorth (350°)5.8 mphClear
11:53 PM19.0 °F10.9 °F71 %30.28 in10.0 miNorth (10°)4.6 mphClear
Hourly data recorded from KCPS, located miles away from East Carondelet, Illinois







STORIES FROM OUR PARTNERS